Terminal Aerodrome Forecast
Issued by NWS

Home | Current Version | Previous Version | Text Only | Print | Product List | Glossary On
Versions: 1 2 3 4 5 6 7 8 9 10 11 12 13 14 15 16 17 18 19 20 21 22
000
FTUS43 KDLH 270100 AAA
TAFHYR
TAF AMD
KHYR 270142Z 2702/2724 35005KT 6SM -SN SCT025 BKN070
     FM271000 33005KT P6SM SCT015
     FM272100 25005KT P6SM SKC=

USA.gov is the U.S. government's official web portal to all federal, state and local government web resources and services.